Location: Cactus School
(34.5700°N, 118.0931°W)
Time: 03:14:06
(UTC-08:00)

Vanguard 2 - Visible Passes

Search period start: 24 November 2017 00:00
Search period end: 04 December 2017 00:00
Orbit: 553 x 2939 km, 32.9° (Epoch: 23 November)

Date Brightness Start Highest point End Pass type
(mag) Time Alt. Az. Time Alt. Az. Time Alt. Az.
24 Nov 10.4 02:24:20 43° SE 02:24:20 43° SE 02:34:49 10° SE visible
24 Nov 10.5 04:25:47 27° WSW 04:30:34 32° SSW 04:44:47 10° SSE visible
25 Nov 10.4 02:41:36 42° SSE 02:41:36 42° SSE 02:52:38 10° SE visible
25 Nov 10.8 04:43:03 19° WSW 04:48:45 24° SW 05:01:05 10° SSE visible
26 Nov 11.6 00:57:25 12° ESE 00:57:25 12° ESE 00:58:25 10° ESE visible
26 Nov 10.4 02:58:52 38° S 02:58:52 38° S 03:10:08 10° SE visible
26 Nov 11.1 05:00:19 12° WSW 05:06:57 18° SW 05:16:28 10° S visible
27 Nov 11.4 01:14:41 15° ESE 01:14:41 15° ESE 01:16:36 10° ESE visible
27 Nov 10.6 03:16:07 32° SSW 03:16:07 32° SSW 03:27:14 10° SSE visible
27 Nov 11.3 05:21:27 10° SW 05:25:14 11° SW 05:29:15 10° SSW visible
27 Nov 9.3 18:52:36 10° SSW 18:53:28 14° S 18:53:28 14° S visible
28 Nov 11.4 01:31:56 16° SE 01:31:56 16° SE 01:34:32 10° SE visible
28 Nov 10.8 03:33:23 25° SSW 03:33:23 25° SSW 03:43:48 10° SSE visible
28 Nov 9.4 19:09:48 10° SSW 19:10:42 15° SSW 19:10:42 15° SSW visible
29 Nov 11.3 01:49:10 17° SE 01:49:10 17° SE 01:52:10 10° SE visible
29 Nov 11.0 03:50:36 18° SSW 03:50:36 18° SSW 03:59:32 10° S visible
29 Nov 9.7 19:27:24 10° SW 19:27:57 13° SW 19:27:57 13° SW visible
30 Nov 11.3 02:06:23 17° SSE 02:06:23 17° SSE 02:09:27 10° SSE visible
30 Nov 11.2 04:07:49 12° SW 04:08:54 12° SSW 04:13:17 10° SSW visible
30 Nov 9.1 17:39:39 10° S 17:41:33 13° SSE 17:43:26 10° ESE visible
01 Dec 11.3 02:23:34 15° SSE 02:23:34 15° SSE 02:26:12 10° SSE visible
01 Dec 8.6 17:56:24 10° SSW 17:59:27 21° SSE 18:00:56 17° SE visible
02 Dec 11.4 02:40:43 12° S 02:40:43 12° S 02:42:11 10° S visible
02 Dec 7.9 18:13:49 10° SW 18:17:23 30° SSE 18:18:08 28° SE visible
03 Dec 7.5 18:31:33 10° SW 18:35:19 43° SSE 18:35:19 43° SSE visible
